Zurück zum Katalog

ARIANE 5 DEB

SPELTRA

AktivGTO
NORAD 27950·DEBRIS·🇫🇷 France

Gestartet Sep 27, 2003 von Guiana Space Centre

Loading…

TLE

AlterndSource: Space-Track

Epoche: Sep 14, 2026, 14:09 UTC

1 27950U 03043D   26257.59026774 -.00000108  00000-0 -89548-4 0  9994
2 27950   7.4189 299.2661 7147853 175.7252 126.6043  2.25002992188744

Verfolge ARIANE 5 DEB in Echtzeit mit AllMySat

Download on the App Store